www.pogodaiklimat.ru

Погода и климат >> Архив погоды >> Боливия >> Cobija


ПОГОДА в Cobija

  • Прогноз погоды в Cobija
  • Монитор погоды в Cobija
  • Климат города

АРХИВ ПОГОДЫ в Cobija

Время (UTC), дата Ветер
(напр.,м/с)
 
Видим.   Явления Облачность Т
(С)
Тd
(С)
f
(%)
Тe
(С)
Тes
(С)
Комфортность P
(гПа)
Po
(гПа)
Тmin
(С)
Tmax
(С)
R
(мм)
R24
(мм)
S
(см)
12 17.01 штиль 0 4000 м дымка {туман} 9/9 90 м
[St]
+23.1 +22.6 97 +32 +32 очень
душно
1013.6 986.1 +22.4 2
15 17.01 штиль 0 20 км 8/4 360 м
[Cu Sc Ac trans Ci fib]
+27.1 +24.2 84 +38 +48 очень
душно
1013.6 987.0
18 17.01 СЗ 2 6000 м в посл. час дождь туман 9/6 450 м
[Cb cap Ci ing]
+25.5 +23.9 91 +35 +42 очень
душно
1011.4 984.8 7
21 17.01 В 2 10 км осадки на расстоянии 8/5 500 м
[Cb cap Ci ing]
+30.0 +23.5 68 +41 +43 опасность
перегрева
1007.0 980.9 +30.5
12 18.01 СЗ 3 20 км 9/4 120 м
[St Ac As]
+24.0 +23.0 94 +32 +33 очень
душно
1012.8 986.0 +22.1 12
15 18.01 З 3 20 км 9/6 450 м
[Sc Ac trans]
+26.3 +23.6 85 +36 +39 очень
душно
1014.0 987.4
18 18.01 штиль 0 20 км 8/8 600 м
[Cb cap Ac cuf Ci ing]
+30.2 +24.4 71 +42 +47 опасность
перегрева
1010.7 984.5
21 18.01 С 8 7000 м осадки на расстоянии 9/6 600 м
[Cb cap Ac cuf Ci ing]
+27.0 +24.6 87 +38 +38 очень
душно
1007.9 981.5 +32.0
12 19.01 В 2 4000 м дымка {туман} 9/8 90 м
[St Ac trans]
+23.9 +23.2 96 +32 +32 очень
душно
1013.7 986.8 +22.6 4
15 19.01 З 2 20 км 8/8 500 м
[Cu med, cong]
+29.7 +24.8 75 +42 +46 опасность
перегрева
1013.7 987.4
18 19.01 С 2 10 км осадки на расстоянии 8/8 600 м
[Cb cap Ci ing]
+31.7 +24.1 64 +44 +48 опасность
перегрева
1009.7 983.7
21 19.01 С 2 20 км в посл. час гроза {ливн. осадки} 8/3 360 м
[Cb cap Ci ing]
+24.0 +22.8 93 +32 +34 очень
душно
1008.9 982.2 +32.5
12 20.01 З 2 15 км 9/9 90 м
[St Ac trans]
+22.5 +21.7 95 +30 +30 очень
душно
1013.5 986.4 +21.4 0.6
15 20.01 З 2 20 км 9/1 450 м
[Cu hum Ac As]
+26.2 +23.1 83 +35 +42 очень
душно
1014.4 987.7
18 20.01 ЮЗ 2 20 км 6/5 750 м
[Cu med, cong Ac trans]
+29.8 +23.5 69 +40 +49 очень
душно
1010.9 984.7
21 20.01 ЮЗ 3 20 км 5/3 750 м
[Cu med, cong Ci sp]
+31.3 +23.2 62 +42 +44 опасность
перегрева
1007.0 981.0 +31.6
12 21.01 штиль 0 20 км 8/0 2000 м
[Ac trans Ci sp]
+23.9 +22.7 93 +31 +34 очень
душно
1011.8 985.0 +23.0
15 21.01 СЗ 3 20 км 8/8 700 м
[Cu med, cong Ac trans Ci sp]
+29.8 +24.9 75 +43 +46 опасность
перегрева
1011.9 985.6
18 21.01 СЗ 5 10 км гроза без осадков {дождь} туман 8/4 700 м
[Cb cap Ac cuf Ci ing]
+26.0 +23.9 88 +36 +40 очень
душно
1009.5 983.0 11
21 21.01 ЮЗ 3 20 км 5/3 700 м
[Cb cap Ac cuf Ci ing]
+29.3 +24.2 74 +41 +43 опасность
перегрева
1005.4 979.3 +31.5
12 22.01 штиль 0 20 км 5/1 180 м
[Sc Ac trans]
+24.3 +23.1 93 +32 +35 очень
душно
1010.8 984.1 +22.1 16
15 22.01 З 5 20 км 8/6 700 м
[Cu hum Ac trans]
+29.1 +24.7 77 +41 +44 опасность
перегрева
1010.8 984.5
18 22.01 СЗ 5 10 км осадки на расстоянии 8/6 700 м
[Cb cap Ac cuf Ci ing]
+31.4 +24.8 68 +45 +47 опасность
перегрева
1006.9 980.9
21 22.01 15 км в посл. час гроза н/о +26.9 +24.9 89 +39 +39 очень
душно
1005.0 978.7 +32.0
12 23.01 С 2 20 км 9/5 180 м
[Sc Ac trans Ci sp]
+24.0 +23.3 96 +32 +33 очень
душно
1011.0 984.2 +22.7
15 23.01 С 2 20 км 8/4 450 м
[Cu hum Ac trans Ci fib]
+27.8 +24.6 83 +39 +47 очень
душно
1011.4 985.0
18 23.01 СВ 2 7000 м гроза без осадков туман 9/5 700 м
[Cb cap Ac trans Ci ing]
+30.3 +25.2 74 +44 +50 опасность
перегрева
1007.9 981.9
21 23.01 З 2 10 км в посл. час гроза {дождь} туман 8/3 700 м
[Cb cap Ci ing]
+26.8 +24.5 87 +38 +40 очень
душно
1006.0 979.6 +31.0

 

Местоположение метеостанции Cobija (Боливия): широта -11.03 долгота -68.78 высота над уровнем моря 235 м.

В архиве по умолчанию представлена погода в Cobija за последнюю неделю. Архивные данные за месяц целиком и за предыдущие месяцы, начиная с января 2011 года, Вы можете получить, выбрав интересующий диапазон дат из раскрывающегося списка и нажав кнопку "Ввод!".

Внимание! Время в таблицах - всемирное. Для получения местного времени необходимо прибавить поправку, которая в Cobija равна -4 ч.

Смотрите также архив погоды в соседних городах и на ближайших метеорологических станциях:

Погода в Epitaciolandia (Бразилия) (6 км)
Погода в Rio Branco (Бразилия) (136 км)
Погода в Rio Branco (Бразилия) (157 км)
Погода в Puerto Maldonado (Перу) (181 км)
Погода в Parque Estadual Chan (Бразилия) (223 км)
Погода в Riberalta (Боливия) (292 км)
Погода в Boca do Acre (Бразилия) (296 км)
Погода в Feijo (Бразилия) (364 км)
Погода в Tarauaca (Бразилия) (385 км)
Погода в Reyes (Боливия) (395 км)

Пояснения к столбцам:

Ветер - указаны скорость ветра в м/с - средняя за 10 мин, порывы в срок и между сроками (в фигурных скобках) и направление, откуда дует ветер: С - северный, СВ - северо-восточный, В - восточный, ЮВ - юго-восточный, Ю - южный, ЮЗ - юго-западный, З - западный, СЗ - северо-западный.
Видимость - горизонтальная дальность видимости в метрах или километрах. При видимости от 1 до 10 км при отсутствии осадков обычно наблюдается дымка, при ухудшении видимости до 1 км и менее - туман. В сухую погоду видимость может ухудшаться дымом, пылью или мглою.
Явления - указаны атмосферные явления, наблюдавшиеся в срок или в последний час перед сроком; фигурными скобками обозначены явления, наблюдавшиеся между сроками (за 1-3 часа до срока); квадратными скобками обозначены град или гололедные отложения с указанием их диаметра в мм.
Облачность - указаны через наклонную черту общая и нижняя облачность в баллах и высота нижней границы облаков в метрах; квадратными скобками обозначены формы облаков: Ci - перистые, Cs - перисто-слоистые, Cc - перисто-кучевые, Ac - высококучевые, As - высокослоистые, Sc - слоисто-кучевые, Ns - слоисто-дождевые, Cu - кучевые, Cb - кучево-дождевые. Подробнее классификацию облаков см. в Атласе облаков (PDF).
T - Температура воздуха - температура, измеренная на высоте 2 м над землей.
Td - Температура точки росы - температура, при понижении до которой содержащийся в воздухе водяной пар достигнет насыщения.
f - Относительная влажность воздуха - влажноcть воздуха, измеренная на высоте 2 м над землей.
Te - Эффективная температура - температура, которую ощущает одетый по сезону человек в тени. Характеристика душности погоды. При расчете учитывается влияние влажности воздуха и скорости ветра на теплоощущения человека.
Tes - Эффективная температура на солнце - температура, которую ощущает человек, с поправкой на солнечный нагрев. Характеристика знойности погоды. Зависит от высоты солнца над горизонтом, облачности и скорости ветра. Ночью, в пасмурную погоду, а также при ветре 12 м/с и более поправка равна нулю.
P - Атмосферное давление - приведенное к уровню моря атмосферное давление.
Po - Атмосферное давление - измеренное на уровне метеостанции атмосферное давление.
Tmin - Минимальная температура - минимум температуры воздуха на высоте 2 м над землей.
Tmax - Максимальная температура - максимум температуры воздуха на высоте 2 м над землей.
R - Количество осадков - Количество выпавших осадков за период времени, мм. При наведении курсора мыши на число - период времени, за который выпало указанное количество осадков.
R24 - Количество осадков - Количество выпавших осадков за 24 часа, мм.
S - Снежный покров - Высота снежного покрова, см. При наведении курсора мыши на число - состояние снежного покрова и степень покрытия местности в баллах.